| time (UTC) | temp F | wind direction | speed knots | gust knots | rain 1hr in | rain 24hr in | rain mn in | humidity % | barometer mb |
| 20260507011053 | 66 | 202 | 1.7 | 5.2 | 0.00 | 0.00 | 0.00 | 82 | 1010.0 |
| 20260507010554 | 66 | 223 | 2.6 | 5.2 | 0.00 | 0.00 | 0.00 | 82 | 1010.2 |
| 20260507010054 | 66 | 209 | 2.6 | 4.3 | 0.00 | 0.00 | 0.00 | 82 | 1010.2 |
| 20260507005557 | 66 | 223 | 2.6 | 4.3 | 0.00 | 0.00 | 0.00 | 81 | 1010.1 |
| 20260507005054 | 66 | 204 | 1.7 | 5.2 | 0.00 | 0.00 | 0.00 | 81 | 1009.8 |
| 20260507004556 | 67 | 207 | 2.6 | 5.2 | 0.00 | 0.00 | 0.00 | 80 | 1009.4 |
| 20260507004053 | 67 | 203 | 0.0 | 2.6 | 0.00 | 0.00 | 0.00 | 79 | 1009.4 |
| 20260507003556 | 67 | 247 | 0.9 | 3.5 | 0.00 | 0.00 | 0.00 | 79 | 1009.5 |
| 20260507003113 | 67 | 248 | 0.9 | 5.2 | 0.00 | 0.00 | 0.00 | 79 | 1009.4 |
| 20260507002556 | 67 | 251 | 1.7 | 7.0 | 0.00 | 0.00 | 0.00 | 79 | 1009.4 |
| 20260507002059 | 68 | 202 | 1.7 | 7.0 | 0.00 | 0.00 | 0.00 | 79 | 1009.3 |
| 20260507001602 | 68 | 200 | 0.9 | 3.5 | 0.00 | 0.00 | 0.00 | 78 | 1009.3 |
| 20260507001059 | 68 | 196 | 1.7 | 7.0 | 0.00 | 0.00 | 0.00 | 78 | 1009.3 |
| 20260507000559 | 68 | 252 | 2.6 | 7.0 | 0.00 | 0.00 | 0.00 | 77 | 1009.3 |
| 20260507000057 | 68 | 202 | 2.6 | 8.7 | 0.00 | 0.00 | 0.00 | 77 | 1009.2 |
| 20260506235554 | 69 | 216 | 4.3 | 8.7 | 0.00 | 0.00 | 0.00 | 77 | 1008.8 |
| 20260506235057 | 69 | 218 | 4.3 | 8.7 | 0.00 | 0.00 | 0.00 | 76 | 1009.1 |
| 20260506234606 | 69 | 240 | 2.6 | 7.0 | 0.00 | 0.00 | 0.00 | 76 | 1009.3 |
| 20260506234056 | 69 | 194 | 2.6 | 6.1 | 0.00 | 0.00 | 0.00 | 76 | 1009.2 |
| 20260506233553 | 69 | 218 | 2.6 | 7.0 | 0.00 | 0.00 | 0.00 | 76 | 1009.2 |
| 20260506233057 | 69 | 205 | 2.6 | 8.7 | 0.00 | 0.00 | 0.00 | 75 | 1009.1 |
| 20260506232552 | 69 | 235 | 4.3 | 8.7 | 0.00 | 0.00 | 0.00 | 75 | 1009.0 |
| 20260506232055 | 69 | 244 | 4.3 | 8.7 | 0.00 | 0.00 | 0.00 | 75 | 1009.0 |
| 20260506231556 | 69 | 220 | 3.5 | 8.7 | 0.00 | 0.00 | 0.00 | 75 | 1009.1 |
| 20260506231054 | 69 | 227 | 2.6 | 8.7 | 0.00 | 0.00 | 0.00 | 75 | 1009.1 |
| 20260506230555 | 70 | 230 | 5.2 | 8.7 | 0.00 | 0.00 | 0.00 | 75 | 1009.1 |
| 20260506230104 | 70 | 246 | 4.3 | 8.7 | 0.00 | 0.00 | 0.00 | 75 | 1008.9 |
| 20260506225555 | 70 | 200 | 3.5 | 12.2 | 0.00 | 0.00 | 0.00 | 74 | 1009.0 |
| 20260506225055 | 70 | 252 | 4.3 | 12.2 | 0.00 | 0.00 | 0.00 | 74 | 1008.9 |
| 20260506224554 | 70 | 263 | 5.2 | 12.2 | 0.00 | 0.00 | 0.00 | 74 | 1008.9 |
| 20260506224055 | 70 | 244 | 1.7 | 4.3 | 0.00 | 0.00 | 0.00 | 75 | 1008.9 |
| 20260506223552 | 70 | 0 | 1.7 | 8.7 | 0.00 | 0.00 | 0.00 | 74 | 1008.8 |
| 20260506223057 | 70 | 239 | 1.7 | 11.3 | 0.00 | 0.00 | 0.00 | 74 | 1008.8 |
| 20260506222555 | 70 | 215 | 3.5 | 11.3 | 0.00 | 0.00 | 0.00 | 74 | 1008.8 |
| 20260506222055 | 70 | 249 | 5.2 | 13.0 | 0.00 | 0.00 | 0.00 | 74 | 1008.9 |
| 20260506221555 | 70 | 253 | 4.3 | 13.0 | 0.00 | 0.00 | 0.00 | 74 | 1009.0 |
| 20260506221052 | 70 | 248 | 6.1 | 13.9 | 0.00 | 0.00 | 0.00 | 73 | 1008.9 |
| 20260506220553 | 71 | 246 | 5.2 | 13.9 | 0.00 | 0.00 | 0.00 | 73 | 1008.9 |
| 20260506220100 | 71 | 306 | 5.2 | 14.8 | 0.00 | 0.00 | 0.00 | 72 | 1008.8 |
| 20260506215554 | 71 | 218 | 7.0 | 14.8 | 0.00 | 0.00 | 0.00 | 72 | 1008.8 |
| 20260506215052 | 71 | 246 | 6.1 | 13.0 | 0.00 | 0.00 | 0.00 | 72 | 1008.8 |
| 20260506214558 | 71 | 264 | 4.3 | 13.0 | 0.00 | 0.00 | 0.00 | 72 | 1008.8 |
| 20260506214051 | 71 | 244 | 7.0 | 13.9 | 0.00 | 0.00 | 0.00 | 72 | 1008.7 |
| 20260506213553 | 71 | 210 | 6.1 | 14.8 | 0.00 | 0.00 | 0.00 | 71 | 1008.5 |
| 20260506213053 | 71 | 217 | 5.2 | 14.8 | 0.00 | 0.00 | 0.00 | 72 | 1008.6 |
| 20260506212553 | 70 | 223 | 4.3 | 15.6 | 0.00 | 0.00 | 0.00 | 74 | 1008.5 |
| 20260506212053 | 70 | 254 | 8.7 | 15.6 | 0.00 | 0.00 | 0.00 | 73 | 1008.5 |
| 20260506211553 | 70 | 200 | 7.8 | 13.9 | 0.00 | 0.00 | 0.00 | 74 | 1008.5 |
| 20260506211053 | 70 | 233 | 5.2 | 13.0 | 0.00 | 0.00 | 0.00 | 74 | 1008.5 |
| 20260506210552 | 69 | 229 | 6.1 | 13.9 | 0.00 | 0.00 | 0.00 | 74 | 1008.5 |
| 20260506210057 | 69 | 265 | 6.1 | 14.8 | 0.00 | 0.00 | 0.00 | 74 | 1008.5 |
| 20260506205552 | 69 | 245 | 8.7 | 14.8 | 0.00 | 0.00 | 0.00 | 74 | 1008.3 |
| 20260506205052 | 69 | 193 | 9.6 | 14.8 | 0.00 | 0.00 | 0.00 | 74 | 1008.3 |
| 20260506204556 | 69 | 233 | 6.1 | 13.9 | 0.00 | 0.00 | 0.00 | 74 | 1008.3 |
| 20260506204053 | 69 | 240 | 7.8 | 13.0 | 0.00 | 0.00 | 0.00 | 74 | 1008.2 |
| 20260506203553 | 69 | 216 | 6.1 | 16.5 | 0.00 | 0.00 | 0.00 | 74 | 1008.2 |
| 20260506203055 | 69 | 251 | 7.0 | 17.4 | 0.00 | 0.00 | 0.00 | 74 | 1008.3 |
| 20260506202553 | 69 | 201 | 9.6 | 17.4 | 0.00 | 0.00 | 0.00 | 74 | 1008.4 |
| 20260506202050 | 69 | 248 | 8.7 | 16.5 | 0.00 | 0.00 | 0.00 | 74 | 1008.3 |
| 20260506201600 | 69 | 271 | 7.8 | 15.6 | 0.00 | 0.00 | 0.00 | 74 | 1008.4 |
| 20260506201050 | 69 | 211 | 7.0 | 15.6 | 0.00 | 0.00 | 0.00 | 75 | 1008.4 |
| 20260506200554 | 68 | 271 | 8.7 | 16.5 | 0.00 | 0.00 | 0.00 | 76 | 1008.6 |
| 20260506200054 | 68 | 234 | 8.7 | 16.5 | 0.00 | 0.00 | 0.00 | 77 | 1008.6 |
| 20260506195553 | 68 | 174 | 9.6 | 16.5 | 0.00 | 0.00 | 0.00 | 77 | 1008.8 |
| 20260506195053 | 67 | 240 | 7.8 | 15.6 | 0.00 | 0.00 | 0.00 | 77 | 1009.0 |
| 20260506194601 | 67 | 250 | 5.2 | 15.6 | 0.00 | 0.00 | 0.00 | 78 | 1008.9 |
| 20260506194053 | 67 | 257 | 9.6 | 15.6 | 0.00 | 0.00 | 0.00 | 77 | 1009.0 |
| 20260506193558 | 67 | 218 | 7.8 | 17.4 | 0.00 | 0.00 | 0.00 | 78 | 1009.2 |
| 20260506193108 | 67 | 228 | 5.2 | 20.9 | 0.00 | 0.00 | 0.00 | 78 | 1009.1 |
| 20260506192553 | 67 | 211 | 11.3 | 20.9 | 0.00 | 0.00 | 0.00 | 78 | 1008.9 |
| 20260506192053 | 67 | 288 | 6.1 | 13.9 | 0.00 | 0.00 | 0.00 | 78 | 1009.1 |
| 20260506191609 | 67 | 224 | 6.1 | 16.5 | 0.00 | 0.00 | 0.00 | 78 | 1009.2 |
| 20260506191054 | 67 | 208 | 6.1 | 16.5 | 0.00 | 0.00 | 0.00 | 78 | 1009.4 |
| 20260506190549 | 66 | 238 | 7.8 | 15.6 | 0.00 | 0.00 | 0.00 | 78 | 1009.2 |
| 20260506190055 | 66 | 266 | 6.1 | 13.9 | 0.00 | 0.00 | 0.00 | 79 | 1009.3 |
| 20260506185550 | 66 | 199 | 6.1 | 16.5 | 0.00 | 0.00 | 0.00 | 78 | 1009.4 |
| 20260506185053 | 66 | 208 | 8.7 | 16.5 | 0.00 | 0.00 | 0.00 | 78 | 1009.2 |
| 20260506184555 | 66 | 244 | 7.0 | 16.5 | 0.00 | 0.00 | 0.00 | 78 | 1009.5 |
| 20260506184050 | 67 | 232 | 7.0 | 14.8 | 0.00 | 0.00 | 0.00 | 78 | 1009.5 |
| 20260506183555 | 66 | 210 | 7.8 | 25.2 | 0.00 | 0.00 | 0.00 | 78 | 1009.6 |
| 20260506183054 | 66 | 230 | 9.6 | 25.2 | 0.00 | 0.00 | 0.00 | 77 | 1009.6 |
| 20260506182552 | 67 | 232 | 10.4 | 18.2 | 0.00 | 0.00 | 0.00 | 77 | 1009.6 |
| 20260506182052 | 67 | 181 | 8.7 | 19.1 | 0.00 | 0.00 | 0.00 | 76 | 1009.6 |
| 20260506181555 | 67 | 186 | 7.0 | 19.1 | 0.00 | 0.00 | 0.00 | 76 | 1009.8 |
| 20260506181053 | 67 | 202 | 4.3 | 15.6 | 0.00 | 0.00 | 0.00 | 76 | 1009.7 |
| 20260506180552 | 67 | 180 | 7.0 | 17.4 | 0.00 | 0.00 | 0.00 | 75 | 1009.7 |
| 20260506180058 | 67 | 225 | 7.8 | 19.1 | 0.00 | 0.00 | 0.00 | 75 | 1009.8 |
| 20260506175552 | 67 | 203 | 9.6 | 26.9 | 0.00 | 0.00 | 0.00 | 74 | 1009.9 |
| 20260506175052 | 68 | 186 | 8.7 | 26.9 | 0.00 | 0.00 | 0.00 | 73 | 1010.1 |
| 20260506174555 | 68 | 190 | 13.0 | 26.9 | 0.00 | 0.00 | 0.00 | 71 | 1009.9 |
| 20260506174052 | 69 | 198 | 9.6 | 20.0 | 0.00 | 0.00 | 0.00 | 71 | 1009.9 |
| 20260506173550 | 69 | 219 | 9.6 | 20.9 | 0.00 | 0.00 | 0.00 | 70 | 1010.0 |
| 20260506173124 | 69 | 173 | 6.1 | 20.9 | 0.00 | 0.00 | 0.00 | 70 | 1010.0 |
| 20260506172551 | 70 | 220 | 7.0 | 20.0 | 0.00 | 0.00 | 0.00 | 69 | 1010.1 |
| 20260506172055 | 70 | 205 | 7.8 | 21.7 | 0.00 | 0.00 | 0.00 | 68 | 1010.0 |
| 20260506171601 | 70 | 186 | 10.4 | 21.7 | 0.00 | 0.00 | 0.00 | 67 | 1009.9 |
| 20260506171053 | 70 | 221 | 6.1 | 14.8 | 0.00 | 0.00 | 0.00 | 70 | 1009.9 |
| 20260506170552 | 70 | 244 | 6.1 | 12.2 | 0.00 | 0.00 | 0.00 | 71 | 1010.0 |
| 20260506170053 | 70 | 203 | 6.1 | 17.4 | 0.00 | 0.00 | 0.00 | 71 | 1010.0 |
| 20260506165552 | 70 | 163 | 8.7 | 17.4 | 0.00 | 0.00 | 0.00 | 72 | 1010.2 |
| 20260506165053 | 70 | 261 | 7.8 | 15.6 | 0.00 | 0.00 | 0.00 | 72 | 1010.2 |
| 20260506164601 | 70 | 209 | 5.2 | 17.4 | 0.00 | 0.00 | 0.00 | 72 | 1010.4 |
| 20260506164053 | 70 | 203 | 7.0 | 17.4 | 0.00 | 0.00 | 0.00 | 68 | 1010.6 |
| 20260506163552 | 70 | 229 | 6.1 | 15.6 | 0.00 | 0.00 | 0.00 | 67 | 1010.6 |
| 20260506163105 | 71 | 211 | 8.7 | 17.4 | 0.00 | 0.00 | 0.00 | 67 | 1010.7 |
| 20260506162552 | 71 | 176 | 8.7 | 17.4 | 0.00 | 0.00 | 0.00 | 66 | 1010.9 |
| 20260506162053 | 71 | 214 | 9.6 | 17.4 | 0.00 | 0.00 | 0.00 | 66 | 1011.1 |
| 20260506161624 | 70 | 184 | 7.8 | 17.4 | 0.00 | 0.00 | 0.00 | 66 | 1011.2 |
| 20260506161052 | 70 | 283 | 9.6 | 16.5 | 0.00 | 0.00 | 0.00 | 66 | 1011.4 |
| 20260506160550 | 70 | 186 | 7.8 | 16.5 | 0.00 | 0.00 | 0.00 | 66 | 1011.1 |
| 20260506160056 | 70 | 228 | 8.7 | 20.0 | 0.00 | 0.00 | 0.00 | 66 | 1011.3 |
| 20260506155550 | 70 | 207 | 7.8 | 20.0 | 0.00 | 0.00 | 0.00 | 66 | 1011.2 |
| 20260506155151 | 70 | 220 | 10.4 | 20.0 | 0.00 | 0.00 | 0.00 | 65 | 1011.2 |
| 20260506154600 | 70 | 247 | 9.6 | 21.7 | 0.00 | 0.00 | 0.00 | 65 | 1011.2 |
| 20260506154053 | 70 | 184 | 7.0 | 21.7 | 0.00 | 0.00 | 0.00 | 65 | 1011.2 |
| 20260506153554 | 70 | 206 | 9.6 | 18.2 | 0.00 | 0.00 | 0.00 | 65 | 1011.3 |
| 20260506153058 | 70 | 229 | 7.0 | 18.2 | 0.00 | 0.00 | 0.00 | 64 | 1011.3 |
| 20260506152552 | 70 | 180 | 6.1 | 13.9 | 0.00 | 0.00 | 0.00 | 65 | 1011.3 |
| 20260506152053 | 70 | 223 | 5.2 | 11.3 | 0.00 | 0.00 | 0.00 | 65 | 1011.4 |
| 20260506151554 | 71 | 211 | 7.0 | 11.3 | 0.00 | 0.00 | 0.00 | 64 | 1011.2 |
| 20260506151053 | 71 | 252 | 6.1 | 13.0 | 0.00 | 0.00 | 0.00 | 64 | 1011.2 |
| 20260506150554 | 70 | 178 | 6.1 | 14.8 | 0.00 | 0.00 | 0.00 | 65 | 1011.2 |
| 20260506150056 | 70 | 200 | 7.8 | 14.8 | 0.00 | 0.00 | 0.00 | 65 | 1011.2 |
| 20260506145554 | 69 | 240 | 6.1 | 15.6 | 0.00 | 0.00 | 0.00 | 66 | 1011.1 |
| 20260506145052 | 69 | 190 | 7.0 | 16.5 | 0.00 | 0.00 | 0.00 | 65 | 1011.1 |
| 20260506144554 | 69 | 222 | 8.7 | 16.5 | 0.00 | 0.00 | 0.00 | 65 | 1011.2 |
| 20260506144053 | 69 | 207 | 7.8 | 13.0 | 0.00 | 0.00 | 0.00 | 65 | 1011.2 |
| 20260506143554 | 69 | 232 | 7.0 | 16.5 | 0.00 | 0.00 | 0.00 | 65 | 1011.2 |
| 20260506143056 | 70 | 200 | 7.0 | 17.4 | 0.00 | 0.00 | 0.00 | 64 | 1011.3 |
| 20260506142553 | 70 | 172 | 8.7 | 17.4 | 0.00 | 0.00 | 0.00 | 64 | 1011.2 |
| 20260506142057 | 70 | 218 | 8.7 | 19.1 | 0.00 | 0.00 | 0.00 | 64 | 1011.3 |
| 20260506141556 | 70 | 222 | 8.7 | 19.1 | 0.00 | 0.00 | 0.00 | 64 | 1011.3 |
| 20260506141053 | 70 | 213 | 7.8 | 17.4 | 0.00 | 0.00 | 0.00 | 65 | 1011.2 |
| 20260506140554 | 70 | 222 | 6.1 | 17.4 | 0.00 | 0.00 | 0.00 | 65 | 1011.2 |
| 20260506140053 | 69 | 226 | 8.7 | 14.8 | 0.00 | 0.00 | 0.00 | 65 | 1011.2 |
| 20260506135553 | 69 | 189 | 6.1 | 21.7 | 0.00 | 0.00 | 0.00 | 65 | 1011.2 |
| 20260506135053 | 70 | 208 | 9.6 | 21.7 | 0.00 | 0.00 | 0.00 | 64 | 1011.4 |
| 20260506134553 | 70 | 211 | 7.8 | 20.9 | 0.00 | 0.00 | 0.00 | 64 | 1011.2 |
| 20260506134054 | 70 | 203 | 7.0 | 20.9 | 0.00 | 0.00 | 0.00 | 63 | 1011.3 |
| 20260506133554 | 70 | 211 | 7.8 | 19.1 | 0.00 | 0.00 | 0.00 | 63 | 1011.1 |
| 20260506133057 | 71 | 229 | 10.4 | 18.2 | 0.00 | 0.00 | 0.00 | 63 | 1011.4 |
| 20260506132554 | 71 | 178 | 7.0 | 18.2 | 0.00 | 0.00 | 0.00 | 64 | 1011.4 |
| 20260506132054 | 71 | 225 | 9.6 | 21.7 | 0.00 | 0.00 | 0.00 | 63 | 1011.5 |
| 20260506131601 | 71 | 225 | 9.6 | 21.7 | 0.00 | 0.00 | 0.00 | 63 | 1011.5 |
| 20260506131054 | 71 | 223 | 7.0 | 20.9 | 0.00 | 0.00 | 0.00 | 64 | 1011.7 |
| 20260506130554 | 71 | 178 | 10.4 | 20.9 | 0.00 | 0.00 | 0.00 | 65 | 1011.6 |
| 20260506130117 | 70 | 150 | 10.4 | 19.1 | 0.00 | 0.00 | 0.00 | 65 | 1011.8 |
| 20260506125553 | 70 | 246 | 7.0 | 21.7 | 0.00 | 0.00 | 0.00 | 65 | 1011.9 |
| 20260506125053 | 69 | 182 | 8.7 | 21.7 | 0.00 | 0.00 | 0.00 | 66 | 1011.7 |
| 20260506124600 | 69 | 188 | 8.7 | 20.0 | 0.00 | 0.00 | 0.00 | 66 | 1011.8 |
| 20260506124053 | 69 | 201 | 8.7 | 18.2 | 0.00 | 0.00 | 0.00 | 66 | 1011.8 |
| 20260506123553 | 69 | 215 | 7.0 | 21.7 | 0.00 | 0.00 | 0.00 | 68 | 1011.8 |
| 20260506123054 | 69 | 222 | 8.7 | 21.7 | 0.00 | 0.00 | 0.00 | 68 | 1011.9 |
| 20260506122554 | 68 | 180 | 7.0 | 18.2 | 0.00 | 0.00 | 0.00 | 70 | 1011.7 |
| 20260506122053 | 67 | 215 | 7.0 | 21.7 | 0.00 | 0.00 | 0.00 | 71 | 1011.6 |
| 20260506121553 | 67 | 215 | 7.8 | 21.7 | 0.00 | 0.00 | 0.00 | 71 | 1011.7 |
| 20260506121052 | 66 | 200 | 7.0 | 20.9 | 0.00 | 0.00 | 0.00 | 71 | 1011.7 |
| 20260506120552 | 67 | 244 | 9.6 | 20.9 | 0.00 | 0.00 | 0.00 | 72 | 1011.7 |
| 20260506120105 | 66 | 244 | 6.1 | 14.8 | 0.00 | 0.00 | 0.00 | 73 | 1011.7 |
| 20260506115553 | 66 | 207 | 7.0 | 14.8 | 0.00 | 0.00 | 0.00 | 74 | 1011.7 |
| 20260506115051 | 65 | 188 | 6.1 | 15.6 | 0.00 | 0.00 | 0.00 | 75 | 1011.8 |
| 20260506114553 | 65 | 207 | 8.7 | 15.6 | 0.00 | 0.00 | 0.00 | 74 | 1011.7 |
| 20260506114055 | 65 | 201 | 7.8 | 15.6 | 0.00 | 0.00 | 0.00 | 75 | 1011.7 |
| 20260506113555 | 65 | 182 | 7.0 | 14.8 | 0.00 | 0.00 | 0.00 | 75 | 1011.6 |
| 20260506113058 | 65 | 197 | 9.6 | 14.8 | 0.00 | 0.00 | 0.00 | 76 | 1011.6 |
| 20260506112555 | 64 | 202 | 6.1 | 13.9 | 0.00 | 0.00 | 0.00 | 76 | 1011.8 |
| 20260506112055 | 64 | 217 | 6.1 | 13.9 | 0.00 | 0.00 | 0.00 | 77 | 1011.8 |
| 20260506111554 | 64 | 166 | 6.1 | 13.9 | 0.00 | 0.00 | 0.00 | 77 | 1012.0 |
| 20260506111054 | 63 | 211 | 5.2 | 13.0 | 0.00 | 0.00 | 0.00 | 78 | 1011.8 |
| 20260506110552 | 63 | 179 | 7.0 | 13.9 | 0.00 | 0.00 | 0.00 | 78 | 1011.8 |
| 20260506105552 | 63 | 194 | 7.8 | 13.9 | 0.00 | 0.00 | 0.00 | 79 | 1011.7 |
| 20260506105051 | 63 | 171 | 6.1 | 11.3 | 0.00 | 0.00 | 0.00 | 79 | 1011.9 |
| 20260506104556 | 62 | 180 | 5.2 | 12.2 | 0.00 | 0.00 | 0.00 | 80 | 1011.8 |
| 20260506104052 | 62 | 183 | 4.3 | 12.2 | 0.00 | 0.00 | 0.00 | 80 | 1011.8 |
| 20260506103552 | 62 | 176 | 6.1 | 16.5 | 0.00 | 0.00 | 0.00 | 80 | 1011.8 |
| 20260506103058 | 62 | 218 | 8.7 | 16.5 | 0.00 | 0.00 | 0.00 | 80 | 1011.8 |
| 20260506102554 | 62 | 190 | 5.2 | 14.8 | 0.00 | 0.00 | 0.00 | 80 | 1011.8 |
| 20260506102054 | 62 | 228 | 6.1 | 14.8 | 0.00 | 0.00 | 0.00 | 80 | 1011.7 |
| 20260506101608 | 62 | 180 | 5.2 | 10.4 | 0.00 | 0.00 | 0.00 | 80 | 1011.7 |
| 20260506101053 | 62 | 165 | 5.2 | 10.4 | 0.00 | 0.00 | 0.00 | 81 | 1011.5 |
| 20260506100553 | 62 | 211 | 6.1 | 12.2 | 0.00 | 0.00 | 0.00 | 81 | 1011.4 |
| 20260506100114 | 62 | 196 | 6.1 | 12.2 | 0.00 | 0.00 | 0.00 | 81 | 1011.5 |
| 20260506095558 | 62 | 230 | 6.1 | 11.3 | 0.00 | 0.00 | 0.00 | 81 | 1011.5 |
| 20260506095054 | 62 | 194 | 4.3 | 12.2 | 0.00 | 0.00 | 0.00 | 81 | 1011.4 |
| 20260506094555 | 62 | 210 | 6.1 | 12.2 | 0.00 | 0.00 | 0.00 | 81 | 1011.3 |
| 20260506094053 | 62 | 189 | 5.2 | 10.4 | 0.00 | 0.00 | 0.00 | 81 | 1011.4 |
| 20260506093553 | 62 | 175 | 6.1 | 12.2 | 0.00 | 0.00 | 0.00 | 81 | 1011.4 |
| 20260506093057 | 62 | 184 | 6.1 | 12.2 | 0.00 | 0.00 | 0.00 | 81 | 1011.4 |
| 20260506092553 | 62 | 197 | 4.3 | 11.3 | 0.00 | 0.00 | 0.00 | 81 | 1011.4 |
| 20260506092108 | 62 | 207 | 4.3 | 10.4 | 0.00 | 0.00 | 0.00 | 81 | 1011.5 |
| 20260506091554 | 63 | 186 | 4.3 | 11.3 | 0.00 | 0.00 | 0.00 | 81 | 1011.5 |
| 20260506091053 | 63 | 188 | 5.2 | 11.3 | 0.00 | 0.00 | 0.00 | 81 | 1011.7 |
| 20260506090553 | 63 | 220 | 4.3 | 12.2 | 0.00 | 0.00 | 0.00 | 81 | 1011.7 |
| 20260506090055 | 63 | 200 | 6.1 | 13.9 | 0.00 | 0.00 | 0.00 | 81 | 1011.7 |
| 20260506085553 | 63 | 183 | 6.1 | 13.9 | 0.00 | 0.00 | 0.00 | 81 | 1011.7 |
| 20260506085054 | 63 | 175 | 5.2 | 12.2 | 0.00 | 0.00 | 0.00 | 81 | 1011.6 |
| 20260506084619 | 63 | 192 | 6.1 | 11.3 | 0.00 | 0.00 | 0.00 | 81 | 1011.7 |
| 20260506084054 | 63 | 186 | 6.1 | 14.8 | 0.00 | 0.00 | 0.00 | 81 | 1011.7 |
| 20260506083554 | 63 | 218 | 4.3 | 14.8 | 0.00 | 0.00 | 0.00 | 80 | 1011.8 |
| 20260506083054 | 63 | 200 | 6.1 | 13.0 | 0.00 | 0.00 | 0.00 | 80 | 1011.8 |
| 20260506082553 | 63 | 194 | 7.0 | 13.9 | 0.00 | 0.00 | 0.00 | 80 | 1011.9 |
| 20260506082053 | 63 | 216 | 6.1 | 13.9 | 0.00 | 0.00 | 0.00 | 80 | 1011.7 |
| 20260506081557 | 63 | 209 | 6.1 | 13.0 | 0.00 | 0.00 | 0.00 | 80 | 1011.8 |
| 20260506081052 | 63 | 207 | 5.2 | 14.8 | 0.00 | 0.00 | 0.00 | 80 | 1011.7 |
| 20260506080555 | 63 | 191 | 6.1 | 14.8 | 0.00 | 0.00 | 0.00 | 80 | 1011.8 |
| 20260506073055 | 64 | 195 | 6.1 | 14.8 | 0.00 | 0.00 | 0.00 | 80 | 1011.8 |
| 20260506072553 | 64 | 178 | 5.2 | 10.4 | 0.00 | 0.00 | 0.00 | 80 | 1011.8 |
| 20260506072052 | 64 | 187 | 3.5 | 11.3 | 0.00 | 0.00 | 0.00 | 79 | 1011.9 |
| 20260506071600 | 64 | 156 | 6.1 | 11.3 | 0.00 | 0.00 | 0.00 | 79 | 1012.0 |
| 20260506071055 | 64 | 230 | 4.3 | 10.4 | 0.00 | 0.00 | 0.00 | 79 | 1012.0 |
| 20260506070555 | 64 | 178 | 4.3 | 10.4 | 0.00 | 0.00 | 0.00 | 79 | 1012.1 |
| 20260506062056 | 65 | 173 | 6.1 | 11.3 | 0.00 | 0.00 | 0.00 | 78 | 1012.1 |
| 20260506061600 | 65 | 182 | 6.1 | 13.9 | 0.00 | 0.00 | 0.00 | 77 | 1012.1 |
| 20260506061415 | 65 | 225 | 6.1 | 13.9 | 0.00 | 0.00 | 0.00 | 77 | 1012.1 |
| 20260506060552 | 65 | 192 | 6.1 | 12.2 | 0.00 | 0.00 | 0.00 | 77 | 1012.2 |
| 20260506051055 | 66 | 234 | 5.2 | 11.3 | 0.00 | 0.00 | 0.00 | 75 | 1012.4 |
| 20260506050553 | 66 | 207 | 5.2 | 11.3 | 0.00 | 0.00 | 0.00 | 75 | 1012.4 |
| 20260506045052 | 66 | 229 | 5.2 | 14.8 | 0.00 | 0.00 | 0.00 | 74 | 1012.4 |
| 20260506044700 | 66 | 207 | 6.1 | 14.8 | 0.00 | 0.00 | 0.00 | 74 | 1012.5 |
| 20260506044055 | 66 | 225 | 4.3 | 14.8 | 0.00 | 0.00 | 0.00 | 74 | 1012.5 |
| 20260506043556 | 67 | 189 | 5.2 | 14.8 | 0.00 | 0.00 | 0.00 | 74 | 1012.5 |
| 20260506043057 | 67 | 200 | 5.2 | 13.9 | 0.00 | 0.00 | 0.00 | 73 | 1012.5 |
| 20260506042553 | 67 | 194 | 5.2 | 13.9 | 0.00 | 0.00 | 0.00 | 73 | 1012.5 |
| 20260506042054 | 67 | 186 | 6.1 | 13.9 | 0.00 | 0.00 | 0.00 | 73 | 1012.5 |
| 20260506041602 | 67 | 238 | 5.2 | 13.0 | 0.00 | 0.00 | 0.00 | 73 | 1012.4 |
| 20260506041052 | 67 | 216 | 6.1 | 14.8 | 0.00 | 0.00 | 0.00 | 73 | 1012.4 |
| 20260506040559 | 67 | 193 | 7.0 | 14.8 | 0.00 | 0.00 | 0.00 | 73 | 1012.4 |
| 20260506040057 | 67 | 229 | 7.0 | 13.9 | 0.00 | 0.00 | 0.00 | 73 | 1012.5 |
| 20260506035552 | 67 | 169 | 7.8 | 14.8 | 0.00 | 0.00 | 0.00 | 73 | 1012.3 |
| 20260506035055 | 66 | 180 | 6.1 | 16.5 | 0.00 | 0.00 | 0.00 | 73 | 1012.4 |
| 20260506034624 | 66 | 218 | 7.8 | 16.5 | 0.00 | 0.00 | 0.00 | 73 | 1012.4 |
| 20260506034052 | 66 | 218 | 7.0 | 13.9 | 0.00 | 0.00 | 0.00 | 74 | 1012.5 |
| 20260506033552 | 66 | 221 | 4.3 | 13.9 | 0.00 | 0.00 | 0.00 | 74 | 1012.5 |
| 20260506033058 | 65 | 216 | 5.2 | 13.0 | 0.00 | 0.00 | 0.00 | 74 | 1012.6 |
| 20260506032553 | 65 | 190 | 4.3 | 11.3 | 0.00 | 0.00 | 0.00 | 74 | 1012.6 |
| 20260506032053 | 65 | 209 | 5.2 | 8.7 | 0.00 | 0.00 | 0.00 | 74 | 1012.6 |
| 20260506031553 | 65 | 193 | 2.6 | 7.8 | 0.00 | 0.00 | 0.00 | 74 | 1012.6 |
| 20260506031056 | 65 | 176 | 3.5 | 8.7 | 0.00 | 0.00 | 0.00 | 74 | 1012.6 |
| 20260506030553 | 65 | 191 | 4.3 | 8.7 | 0.00 | 0.00 | 0.00 | 73 | 1012.8 |
| 20260506030053 | 65 | 165 | 2.6 | 7.8 | 0.00 | 0.00 | 0.00 | 73 | 1012.7 |
| 20260506025553 | 65 | 163 | 3.5 | 7.8 | 0.00 | 0.00 | 0.00 | 73 | 1012.7 |
| 20260506025054 | 65 | 187 | 3.5 | 7.0 | 0.00 | 0.00 | 0.00 | 72 | 1012.8 |
| 20260506024556 | 65 | 173 | 3.5 | 7.8 | 0.00 | 0.00 | 0.00 | 72 | 1012.8 |
| 20260506024055 | 66 | 187 | 4.3 | 7.8 | 0.00 | 0.00 | 0.00 | 72 | 1012.7 |
| 20260506023552 | 66 | 184 | 3.5 | 7.8 | 0.00 | 0.00 | 0.00 | 71 | 1012.7 |
| 20260506023110 | 66 | 172 | 4.3 | 8.7 | 0.00 | 0.00 | 0.00 | 71 | 1012.7 |
| 20260506022553 | 66 | 192 | 3.5 | 9.6 | 0.00 | 0.00 | 0.00 | 70 | 1012.8 |
| 20260506022053 | 66 | 173 | 3.5 | 10.4 | 0.00 | 0.00 | 0.00 | 70 | 1012.8 |
| 20260506021554 | 66 | 163 | 4.3 | 10.4 | 0.00 | 0.00 | 0.00 | 69 | 1012.8 |
| 20260506021053 | 67 | 195 | 5.2 | 11.3 | 0.00 | 0.00 | 0.00 | 69 | 1012.9 |
| 20260506020552 | 67 | 172 | 5.2 | 11.3 | 0.00 | 0.00 | 0.00 | 68 | 1012.8 |
| 20260506020052 | 67 | 155 | 5.2 | 11.3 | 0.00 | 0.00 | 0.00 | 68 | 1012.8 |
| 20260506015553 | 67 | 179 | 4.3 | 11.3 | 0.00 | 0.00 | 0.00 | 67 | 1012.8 |
| 20260506015053 | 67 | 173 | 4.3 | 10.4 | 0.00 | 0.00 | 0.00 | 67 | 1012.8 |
| 20260506014553 | 67 | 230 | 4.3 | 12.2 | 0.00 | 0.00 | 0.00 | 66 | 1012.7 |
| 20260506014053 | 67 | 169 | 5.2 | 12.2 | 0.00 | 0.00 | 0.00 | 66 | 1012.7 |
| 20260506013551 | 68 | 156 | 6.1 | 11.3 | 0.00 | 0.00 | 0.00 | 65 | 1012.7 |
| 20260506013055 | 68 | 148 | 5.2 | 11.3 | 0.00 | 0.00 | 0.00 | 65 | 1012.7 |
| 20260506012552 | 68 | 173 | 5.2 | 15.6 | 0.00 | 0.00 | 0.00 | 64 | 1012.5 |
| 20260506012053 | 68 | 163 | 5.2 | 15.6 | 0.00 | 0.00 | 0.00 | 64 | 1012.5 |
| 20260506011614 | 68 | 201 | 6.1 | 12.2 | 0.00 | 0.00 | 0.00 | 63 | 1012.5 |